Home > Weather > Kailua-Kona > Past weeks

Flag for USA Past Weather in Kailua-Kona, Hawaii, USA — Yesterday and Last 2 Weeks

Now
81 °F

Light rain. Mostly cloudy.


Feels Like: 84 °F
Forecast: 70 / 80 °F
Wind: 7 mph from East

Location: Keahole Airport

Current Time: Jun 26, 2016 at 11:38:05 PM

Latest Report: Jun 26, 2016 at 11:17 PM


Visibility: 10 mi

Pressure: 30.00 "Hg

Humidity: 70%

Dew Point: 70 °F

Location of Kailua-KonaLocation

Past Weather in Kailua-Kona — Graph

°F

Kailua-Kona Temperature Yesterday

Maximum temperature yesterday: 85 °F (at 10:53 AM)
Minimum temperature yesterday: 76 °F (at 2:53 AM)
Average temperature yesterday: 81 °F

High & Low Weather Summary for the Past Weeks

 TemperatureHumidityPressure
High87 °F (Jun 22, 10:53 AM)88% (Jun 12, 3:53 AM)30.11 "Hg (Jun 12, 3:53 AM)
Low74 °F (Jun 19, 5:53 AM)48% (Jun 26, 5:53 PM)29.91 "Hg (Jun 26, 4:53 PM)
Average81 °F67%30.00 "Hg
* Reported Jun 11 9:53 PM — Jun 26 9:53 PM, Kailua-Kona, Weather by CustomWeather, © 2016

Note: Actual official high and low records may vary slightly from our data, if they occured in-between our weather recording intervals... More about our weather records

Advertising

Kailua-Kona Weather History for the Previous 24 Hours

Scroll right to see more
 ConditionsComfort  
Time TempWeatherWind HumidityBarometerVisibility
9:53 PM
Sun, Jun 26
80 °FPassing clouds.No wind60%29.97 "Hg10 mi
8:53 PM81 °FPartly cloudy.7 mph58%29.97 "Hg10 mi
7:53 PM82 °FPassing clouds.7 mph63%29.96 "Hg10 mi
6:53 PM83 °FPartly sunny.10 mph61%29.93 "Hg10 mi
6:05 PM86 °FMore clouds than sun.9 mph49%29.92 "Hg10 mi
5:53 PM86 °FMostly cloudy.16 mph48%29.92 "Hg10 mi
4:53 PM85 °FPartly sunny.13 mph57%29.91 "Hg10 mi
3:53 PM84 °FOvercast.10 mph59%29.92 "Hg10 mi
2:53 PM84 °FOvercast.10 mph59%29.93 "Hg10 mi
1:53 PM86 °FPartly sunny.9 mph59%29.95 "Hg10 mi
12:53 PM86 °FScattered clouds.10 mph59%29.96 "Hg10 mi
11:53 AM87 °FPassing clouds.12 mph59%29.97 "Hg10 mi
10:53 AM84 °FSunny.10 mph63%29.98 "Hg10 mi
9:53 AM84 °FScattered clouds.13 mph65%29.99 "Hg10 mi
8:53 AM83 °FSunny.10 mph65%29.99 "Hg10 mi
7:53 AM81 °FPassing clouds.9 mph67%29.98 "Hg10 mi
6:53 AM79 °FSunny.10 mph72%29.98 "Hg10 mi
5:53 AM77 °FSunny.10 mph77%29.95 "Hg10 mi
4:53 AM76 °FPassing clouds.6 mph74%29.94 "Hg10 mi
3:53 AM78 °FPassing clouds.6 mph74%29.93 "Hg10 mi
3:29 AM79 °FPassing clouds.6 mph74%29.93 "Hg10 mi
3:02 AM77 °FPassing clouds.5 mph69%29.93 "Hg10 mi
2:53 AM77 °FPassing clouds.3 mph71%29.93 "Hg10 mi
1:53 AM77 °FClear.5 mph69%29.93 "Hg10 mi
12:53 AM78 °FClear.7 mph58%29.95 "Hg10 mi
11:53 PM
Sat, Jun 25
79 °FClear.8 mph56%29.97 "Hg10 mi
Weather by CustomWeather, © 2016

See weather overviewHow to use our weather pages